Torna al catalogo

FENGYUN 1C DEB

AttivoSSO
NORAD 31047·DEBRIS·🇨🇳 China

Lanciato May 10, 1999 da Taiyuan Satellite Launch Center

Loading…

Prossimi Passaggi (prossime 24 ore)

TLE

AggiornatoSource: Space-Track

Epoca: Sep 14, 2026, 11:42 UTC

1 31047U 99025BER 26257.48754966  .00000428  00000-0  24578-3 0  9994
2 31047  98.7137 252.8638 0026679 111.9110  39.4131 14.14228015  2135

Traccia FENGYUN 1C DEB in tempo reale con AllMySat

Download on the App Store